Dodge City, KS

6:46 AM CDT on May 23, 2017 (GMT -0500)
Dodge City Regional

Weather History for KDDC - November, 2013

Change the Weather History Date:

Saturday, November 23, 2013

  Actual Average Record
Temperature  
Mean Temperature 26 °F -  
Max Temperature 32 °F 49 °F 74 °F (2005)
Min Temperature 21 °F 25 °F 8 °F (1898)
Degree Days  
Heating Degree Days 38    
Moisture  
Dew Point 18 °F    
Average Humidity 64    
Maximum Humidity 82    
Minimum Humidity 45    
Precipitation  
Precipitation 0.00 in - - ()
Sea Level Pressure  
Sea Level Pressure 30.73 in    
Wind  
Wind Speed 7 mph (NNE)    
Max Wind Speed 15 mph    
Max Gust Speed -    
Visibility 10 miles    
Events      
Averages and records for this station are not official NWS values.
T = Trace of Precipitation, MM = Missing Value Source: NWS Daily Summary

Daily Weather History Graph

Daily Weather History Graph

Search for Another Location

Airport or City:

Trip Planner

Search our weather history database for the weather conditions in past years. The results will help you decide how hot, cold, wet, or windy it might be!

Date:

Astronomy

Nov. 23, 2013 Rise Set
Actual Time 7:28 AM CST 5:23 PM CST
Civil Twilight 7:00 AM CST 5:52 PM CST
Nautical Twilight 6:28 AM CST 6:24 PM CST
Astronomical Twilight 5:56 AM CST 6:55 PM CST
Moon 10:51 PM CST 11:48 AM CST
Length of Visible Light 10h 51m
Length of Day
9h 54m
Waning Gibbous, 69% of the Moon is Illuminated
Nov 23
Waning Gibbous
Nov 25
Last Quarter
Dec 2
New
Dec 9
First Quarter
Dec 17
Full

Hourly Weather History & Observations

Time (CST) Temp. Windchill Dew Point Humidity Pressure Visibility Wind Dir Wind Speed Gust Speed Precip Events Conditions
12:52 AM 28.0 °F - 15.1 °F 58% 30.68 in 10.0 mi Calm Calm - N/A   Overcast
1:52 AM 28.0 °F 22.8 °F 15.1 °F 58% 30.69 in 10.0 mi NW 4.6 mph - N/A   Overcast
2:52 AM 27.0 °F 20.5 °F 18.0 °F 69% 30.70 in 10.0 mi WNW 5.8 mph - N/A   Overcast
3:52 AM 28.0 °F 21.7 °F 19.0 °F 69% 30.70 in 10.0 mi NNW 5.8 mph - N/A   Overcast
4:52 AM 28.0 °F 22.8 °F 19.0 °F 69% 30.70 in 10.0 mi NNW 4.6 mph - N/A   Overcast
5:52 AM 28.0 °F 22.8 °F 17.1 °F 63% 30.72 in 10.0 mi NNW 4.6 mph - N/A   Overcast
6:52 AM 28.0 °F 18.6 °F 17.1 °F 63% 30.72 in 10.0 mi North 10.4 mph - N/A   Overcast
7:52 AM 28.0 °F 18.1 °F 18.0 °F 66% 30.75 in 10.0 mi NNE 11.5 mph - N/A   Overcast
8:52 AM 27.0 °F 15.6 °F 16.0 °F 63% 30.77 in 10.0 mi NNE 13.8 mph - N/A   Overcast
9:52 AM 28.0 °F 16.5 °F 16.0 °F 61% 30.79 in 10.0 mi NE 15.0 mph - N/A   Overcast
10:52 AM 28.9 °F 17.7 °F 17.1 °F 61% 30.80 in 10.0 mi NNE 15.0 mph - N/A   Overcast
11:52 AM 30.0 °F 19.1 °F 17.1 °F 59% 30.77 in 10.0 mi NNE 15.0 mph - N/A   Overcast
12:52 PM 30.0 °F 19.1 °F 18.0 °F 61% 30.76 in 10.0 mi NNE 15.0 mph - N/A   Overcast
1:52 PM 32.0 °F 23.0 °F 19.0 °F 59% 30.74 in 10.0 mi ENE 11.5 mph - N/A   Clear
2:52 PM 30.9 °F 20.7 °F 18.0 °F 59% 30.73 in 10.0 mi NE 13.8 mph - N/A   Partly Cloudy
3:52 PM 30.0 °F 21.1 °F 18.0 °F 61% 30.73 in 10.0 mi NE 10.4 mph - N/A   Clear
4:52 PM 28.9 °F 21.1 °F 18.0 °F 64% 30.74 in 10.0 mi ENE 8.1 mph - N/A   Clear
5:52 PM 27.0 °F 19.5 °F 19.0 °F 72% 30.75 in 10.0 mi NE 6.9 mph - N/A   Clear
6:52 PM 26.1 °F 19.4 °F 19.0 °F 75% 30.74 in 10.0 mi ENE 5.8 mph - N/A   Clear
7:52 PM 25.0 °F 16.3 °F 18.0 °F 75% 30.74 in 10.0 mi NE 8.1 mph - N/A   Clear
8:52 PM 24.1 °F 16.0 °F 18.0 °F 77% 30.72 in 10.0 mi ENE 6.9 mph - N/A   Clear
9:52 PM 23.0 °F 14.7 °F 17.1 °F 78% 30.72 in 10.0 mi ENE 6.9 mph - N/A   Clear
10:52 PM 21.9 °F 17.2 °F 17.1 °F 82% 30.73 in 10.0 mi East 3.5 mph - N/A   Scattered Clouds
11:52 PM 23.0 °F - 17.1 °F 78% 30.72 in 10.0 mi Calm Calm - N/A   Partly Cloudy